GW3565 Weather Reports


Display with metric or nautical units.
time (UTC)temp
F
wind
direction
speed
MPH
gust
MPH
rain 1hr
in
rain 24hr
in
rain mn
in
humidity
%
barometer
mb
20260502180508 64 255 3.0 12.0 0.00 0.00 0.00 38 1009.7
20260502170511 65 239 3.0 11.0 0.00 0.00 0.00 34 1010.3
20260502164006 67 213 4.0 9.0 0.00 0.00 0.00 33 1010.0
20260502163504 67 161 3.0 9.0 0.00 0.00 0.00 32 1009.9
20260502163013 66 175 5.0 11.0 0.00 0.00 0.00 33 1009.9
20260502162509 66 158 4.0 11.0 0.00 0.00 0.00 35 1010.0
20260502162011 66 185 3.0 8.0 0.00 0.00 0.00 34 1010.1
20260502161516 65 237 2.0 8.0 0.00 0.00 0.00 35 1010.1
20260502161009 65 143 4.0 10.0 0.00 0.00 0.00 36 1010.2
20260502160509 64 208 5.0 10.0 0.00 0.00 0.00 36 1010.3
20260502152007 57 157 3.0 7.0 0.00 0.00 0.00 48 1011.3
20260502151516 57 170 3.0 8.0 0.00 0.00 0.00 48 1011.3
20260502151004 56 182 4.0 8.0 0.00 0.00 0.00 49 1011.4
20260502150509 56 162 3.0 7.0 0.00 0.00 0.00 49 1011.4
20260502130504 45 182 6.0 12.0 0.00 0.00 0.00 58 1012.7
20260502123514 42 173 7.0 14.0 0.00 0.00 0.00 60 1013.0
20260502123004 42 171 5.0 10.0 0.00 0.00 0.00 61 1013.1
20260502122502 42 161 6.0 10.0 0.00 0.00 0.00 61 1013.2
20260502122006 41 173 5.0 10.0 0.00 0.00 0.00 61 1013.1
20260502121509 41 182 5.0 9.0 0.00 0.00 0.00 61 1013.2
20260502121004 41 167 4.0 10.0 0.00 0.00 0.00 61 1013.3
20260502120506 41 183 5.0 10.0 0.00 0.00 0.00 61 1013.4
20260502115510 40 170 4.0 10.0 0.00 0.00 0.00 61 1013.4
20260502115004 40 175 5.0 11.0 0.00 0.00 0.00 61 1013.5
20260502114512 40 177 6.0 12.0 0.00 0.00 0.00 60 1013.6
20260502114010 40 159 5.0 12.0 0.00 0.00 0.00 60 1013.6
20260502113504 41 172 6.0 10.0 0.00 0.00 0.00 59 1013.6
20260502113008 41 176 5.0 9.0 0.00 0.00 0.00 59 1013.7
20260502112508 41 178 5.0 13.0 0.00 0.00 0.00 58 1013.7
20260502112012 41 172 6.0 13.0 0.00 0.00 0.00 58 1013.7
20260502111503 41 182 6.0 14.0 0.00 0.00 0.00 58 1013.8
20260502111004 41 174 8.0 14.0 0.00 0.00 0.00 57 1013.9
20260502110508 41 182 5.0 16.0 0.00 0.00 0.00 58 1013.9
20260502110009 41 173 6.0 16.0 0.00 0.00 0.00 57 1014.0
20260502105504 41 171 5.0 12.0 0.00 0.00 0.00 57 1013.9
20260502105007 41 182 5.0 12.0 0.00 0.00 0.00 58 1013.8
20260502104515 41 176 6.0 12.0 0.00 0.00 0.00 58 1013.8
20260502104008 41 192 5.0 13.0 0.00 0.00 0.00 57 1014.0
20260502103505 41 181 7.0 13.0 0.00 0.00 0.00 57 1014.0
20260502103039 41 169 6.0 12.0 0.00 0.00 0.00 58 1014.1
20260502102508 40 186 6.0 12.0 0.00 0.00 0.00 58 1014.1
20260502102005 40 175 5.0 10.0 0.00 0.00 0.00 58 1014.2
20260502101516 40 169 5.0 10.0 0.00 0.00 0.00 58 1014.3
20260502101009 40 164 5.0 10.0 0.00 0.00 0.00 58 1014.4
20260502100504 40 179 5.0 8.0 0.00 0.00 0.00 58 1014.4
20260502091520 41 170 3.0 6.0 0.00 0.00 0.00 54 1015.3
20260502091004 41 199 4.0 7.0 0.00 0.00 0.00 54 1015.3
20260502090507 41 153 3.0 7.0 0.00 0.00 0.00 53 1015.4
20260502071518 43 163 4.0 7.0 0.00 0.00 0.00 49 1016.7
20260502071005 43 170 4.0 7.0 0.00 0.00 0.00 49 1016.7
20260502070510 43 162 4.0 7.0 0.00 0.00 0.00 49 1016.8
20260502070018 43 171 5.0 7.0 0.00 0.00 0.00 49 1016.9
20260502065509 43 150 4.0 7.0 0.00 0.00 0.00 49 1017.0
20260502065014 43 184 4.0 7.0 0.00 0.00 0.00 49 1017.0
20260502064518 43 188 3.0 7.0 0.00 0.00 0.00 49 1017.1
20260502064012 43 181 4.0 7.0 0.00 0.00 0.00 49 1017.2
20260502063510 43 166 4.0 7.0 0.00 0.00 0.00 49 1017.3
20260502063015 43 171 3.0 8.0 0.00 0.00 0.00 49 1017.2
20260502062510 43 169 4.0 8.0 0.00 0.00 0.00 49 1017.3
20260502062012 43 181 3.0 6.0 0.00 0.00 0.00 49 1017.3
20260502061528 43 171 3.0 7.0 0.00 0.00 0.00 49 1017.3
20260502061008 44 198 4.0 7.0 0.00 0.00 0.00 49 1017.4
20260502060505 44 171 4.0 6.0 0.00 0.00 0.00 49 1017.4
20260502060018 44 169 3.0 6.0 0.00 0.00 0.00 49 1017.4
20260502055507 44 173 3.0 5.0 0.00 0.00 0.00 48 1017.5
20260502055009 44 165 3.0 6.0 0.00 0.00 0.00 48 1017.5
20260502054519 44 179 3.0 6.0 0.00 0.00 0.00 48 1017.5
20260502054009 44 165 4.0 6.0 0.00 0.00 0.00 48 1017.6
20260502053510 44 176 3.0 7.0 0.00 0.00 0.00 48 1017.6
20260502053022 44 168 4.0 7.0 0.00 0.00 0.00 48 1017.6
20260502052510 44 172 4.0 6.0 0.00 0.00 0.00 48 1017.6
20260502052012 44 171 4.0 6.0 0.00 0.00 0.00 48 1017.6
20260502051522 43 165 3.0 6.0 0.00 0.00 0.00 48 1017.7
20260502051009 43 164 3.0 7.0 0.00 0.00 0.00 49 1017.7
20260502050504 43 171 3.0 7.0 0.00 0.00 0.00 49 1017.7
20260502050006 42 161 2.0 5.0 0.00 0.00 0.00 50 1017.7
20260502045504 42 166 3.0 5.0 0.00 0.00 0.00 51 1017.7
20260502045004 42 140 1.0 4.0 0.00 0.00 0.00 52 1017.8
20260502044505 42 182 2.0 4.0 0.00 0.00 0.00 51 1017.8
20260502044005 42 138 1.0 4.0 0.00 0.00 0.00 52 1017.8
20260502043502 42 158 2.0 4.0 0.00 0.00 0.00 53 1017.9
20260502043002 42 169 2.0 4.0 0.00 0.00 0.00 53 1017.9
20260502042502 42 155 0.0 3.0 0.00 0.00 0.00 55 1017.8
20260502042003 42 153 1.0 2.0 0.00 0.00 0.00 55 1017.9
20260502041505 42 153 1.0 2.0 0.00 0.00 0.00 54 1017.9
20260502041005 42 153 0.0 2.0 0.00 0.00 0.00 54 1017.9
20260502040502 42 153 0.0 1.0 0.00 0.00 0.00 52 1017.9
20260502040008 43 153 0.0 1.0 0.00 0.00 0.00 53 1018.0
20260502035502 43 153 0.0 1.0 0.00 0.00 0.00 55 1017.9
20260502035004 43 153 0.0 1.0 0.00 0.00 0.00 56 1018.0
20260502034504 43 153 0.0 2.0 0.00 0.00 0.00 55 1018.0
20260502034004 43 153 1.0 2.0 0.00 0.00 0.00 50 1018.0
20260502033504 44 142 0.0 1.0 0.00 0.00 0.00 49 1018.0
20260502033010 44 142 0.0 0.0 0.00 0.00 0.00 49 1018.0
20260502032501 44 142 0.0 0.0 0.00 0.00 0.00 49 1018.0
20260502032001 44 142 0.0 1.0 0.00 0.00 0.00 50 1018.0
20260502031505 45 142 0.0 1.0 0.00 0.00 0.00 51 1018.0
20260502031002 45 142 0.0 1.0 0.00 0.00 0.00 51 1018.0
20260502030504 45 142 0.0 1.0 0.00 0.00 0.00 46 1018.1
20260502030010 45 142 0.0 1.0 0.00 0.00 0.00 44 1018.2
20260502025505 45 158 0.0 1.0 0.00 0.00 0.00 43 1018.2
20260502025002 46 158 0.0 1.0 0.00 0.00 0.00 43 1018.2
20260502024508 46 158 0.0 1.0 0.00 0.00 0.00 43 1018.1
20260502024005 46 158 0.0 1.0 0.00 0.00 0.00 43 1018.2
20260502023504 47 158 0.0 1.0 0.00 0.00 0.00 43 1018.1
20260502023008 47 158 0.0 1.0 0.00 0.00 0.00 43 1018.1
20260502022505 47 158 0.0 1.0 0.00 0.00 0.00 43 1018.1
20260502022004 48 247 0.0 1.0 0.00 0.00 0.00 44 1018.1
20260502021505 48 247 0.0 1.0 0.00 0.00 0.00 39 1018.1
20260502021004 49 247 0.0 1.0 0.00 0.00 0.00 38 1018.1
20260502020502 49 247 0.0 0.0 0.00 0.00 0.00 37 1018.1
20260502020006 49 247 0.0 0.0 0.00 0.00 0.00 37 1018.1
20260502015507 50 247 0.0 0.0 0.00 0.00 0.00 35 1018.2
20260502015010 50 247 0.0 0.0 0.00 0.00 0.00 35 1018.1
20260502014510 51 247 0.0 0.0 0.00 0.00 0.00 34 1018.1
20260502014006 51 247 0.0 0.0 0.00 0.00 0.00 33 1018.1
20260502013506 52 247 0.0 0.0 0.00 0.00 0.00 33 1018.2
20260502013010 52 247 0.0 0.0 0.00 0.00 0.00 32 1018.1
20260502012504 53 247 0.0 0.0 0.00 0.00 0.00 32 1018.2
20260502012006 53 247 0.0 0.0 0.00 0.00 0.00 32 1018.2
20260502011510 53 247 0.0 1.0 0.00 0.00 0.00 32 1018.2
20260502011005 54 246 0.0 2.0 0.00 0.00 0.00 32 1018.2
20260502010504 54 78 0.0 2.0 0.00 0.00 0.00 32 1018.2
20260502010009 54 212 0.0 2.0 0.00 0.00 0.00 32 1018.2
20260502005505 55 198 0.0 2.0 0.00 0.00 0.00 30 1018.2
20260502005003 55 269 0.0 3.0 0.00 0.00 0.00 32 1018.3
20260502004507 55 274 2.0 3.0 0.00 0.00 0.00 31 1018.4
20260502004005 55 235 0.0 3.0 0.00 0.00 0.00 30 1018.5
20260502003507 55 267 0.0 5.0 0.00 0.00 0.00 30 1018.4
20260502003009 55 302 0.0 5.0 0.00 0.00 0.00 30 1018.4
20260502002506 55 340 1.0 3.0 0.00 0.00 0.00 29 1018.4
20260502002007 55 304 0.0 3.0 0.00 0.00 0.00 29 1018.4
20260502001513 55 338 2.0 3.0 0.00 0.00 0.00 29 1018.5
20260502001004 56 60 1.0 3.0 0.00 0.00 0.00 29 1018.5
20260502000508 56 360 1.0 4.0 0.00 0.00 0.00 29 1018.5
20260502000013 56 330 3.0 4.0 0.00 0.00 0.00 28 1018.5
20260501235510 56 346 1.0 3.0 0.00 0.00 0.00 28 1018.5
20260501235008 56 317 1.0 4.0 0.00 0.00 0.00 29 1018.6
20260501234513 57 55 1.0 5.0 0.00 0.00 0.00 28 1018.6
20260501234005 57 289 2.0 5.0 0.00 0.00 0.00 30 1018.7
20260501233507 57 286 1.0 7.0 0.00 0.00 0.00 30 1018.6
20260501233010 57 257 3.0 7.0 0.00 0.00 0.00 29 1018.7
20260501232508 57 163 3.0 5.0 0.00 0.00 0.00 29 1018.7
20260501232005 57 236 2.0 6.0 0.00 0.00 0.00 30 1018.7
20260501231510 57 322 2.0 6.0 0.00 0.00 0.00 30 1018.7
20260501231006 57 352 3.0 6.0 0.00 0.00 0.00 29 1018.8
20260501230507 57 260 1.0 9.0 0.00 0.00 0.00 28 1018.7
20260501230017 57 336 3.0 9.0 0.00 0.00 0.00 28 1018.8
20260501225505 57 350 1.0 8.0 0.00 0.00 0.00 28 1018.8
20260501225007 57 323 1.0 5.0 0.00 0.00 0.00 29 1018.8
20260501224513 57 262 2.0 7.0 0.00 0.00 0.00 27 1018.9
20260501224005 57 288 3.0 7.0 0.00 0.00 0.00 27 1018.8
20260501223506 57 360 2.0 6.0 0.00 0.00 0.00 29 1018.9
20260501223031 57 276 3.0 6.0 0.00 0.00 0.00 29 1018.9
20260501222506 57 329 2.0 10.0 0.00 0.00 0.00 29 1018.9
20260501222006 57 352 2.0 10.0 0.00 0.00 0.00 27 1018.9
20260501221511 57 329 3.0 9.0 0.00 0.00 0.00 27 1018.8
20260501221007 57 277 1.0 5.0 0.00 0.00 0.00 27 1018.8
20260501220506 58 210 1.0 8.0 0.00 0.00 0.00 26 1018.9
20260501220014 58 334 3.0 8.0 0.00 0.00 0.00 26 1019.0
20260501215505 58 340 2.0 6.0 0.00 0.00 0.00 29 1019.1
20260501215007 58 352 1.0 3.0 0.00 0.00 0.00 30 1019.2
20260501214527 58 348 0.0 3.0 0.00 0.00 0.00 30 1019.2
20260501214009 58 246 1.0 4.0 0.00 0.00 0.00 27 1019.2
20260501213506 57 64 1.0 8.0 0.00 0.00 0.00 27 1019.3
20260501213012 57 182 1.0 8.0 0.00 0.00 0.00 30 1019.3
20260501212506 57 156 2.0 6.0 0.00 0.00 0.00 31 1019.4
20260501212008 56 352 1.0 7.0 0.00 0.00 0.00 30 1019.4
20260501211520 56 24 2.0 9.0 0.00 0.00 0.00 29 1019.4
20260501211008 56 333 3.0 9.0 0.00 0.00 0.00 28 1019.4
20260501210506 56 332 4.0 9.0 0.00 0.00 0.00 29 1019.5
20260501210017 56 323 1.0 8.0 0.00 0.00 0.00 29 1019.5
20260501205508 56 71 2.0 10.0 0.00 0.00 0.00 28 1019.6
20260501205006 56 340 4.0 10.0 0.00 0.00 0.00 29 1019.7
20260501204519 56 166 2.0 7.0 0.00 0.00 0.00 29 1019.8
20260501204006 55 270 1.0 5.0 0.00 0.00 0.00 30 1019.8
20260501203506 55 119 0.0 5.0 0.00 0.00 0.00 29 1019.8
20260501203027 55 44 2.0 10.0 0.00 0.00 0.00 29 1019.9
20260501202507 56 333 4.0 10.0 0.00 0.00 0.00 28 1020.0
20260501202014 56 30 1.0 6.0 0.00 0.00 0.00 31 1020.0
20260501201518 56 113 1.0 6.0 0.00 0.00 0.00 31 1020.1
20260501201015 57 315 1.0 7.0 0.00 0.00 0.00 32 1020.1
20260501200506 57 340 1.0 7.0 0.00 0.00 0.00 31 1020.1
20260501200010 57 198 2.0 7.0 0.00 0.00 0.00 32 1020.1
20260501195502 56 211 3.0 7.0 0.00 0.00 0.00 35 1020.2
20260501195002 55 193 1.0 7.0 0.00 0.00 0.00 34 1020.2
20260501194512 55 204 2.0 8.0 0.00 0.00 0.00 34 1020.2
20260501194008 55 209 4.0 9.0 0.00 0.00 0.00 34 1020.1
20260501193503 55 249 4.0 9.0 0.00 0.00 0.00 33 1020.3
20260501193004 55 196 2.0 10.0 0.00 0.00 0.00 34 1020.2
20260501192502 54 336 3.0 10.0 0.00 0.00 0.00 33 1020.3
20260501192003 54 302 3.0 7.0 0.00 0.00 0.00 35 1020.3
20260501191505 53 293 3.0 6.0 0.00 0.00 0.00 38 1020.4
20260501191004 53 360 3.0 6.0 0.00 0.00 0.00 35 1020.4
20260501190507 53 352 2.0 6.0 0.00 0.00 0.00 36 1020.5
20260501190007 53 296 2.0 7.0 0.00 0.00 0.00 35 1020.6
20260501185507 53 113 1.0 7.0 0.00 0.00 0.00 37 1020.6
20260501185006 52 259 2.0 7.0 0.00 0.00 0.00 36 1020.6
20260501184504 52 257 2.0 6.0 0.00 0.00 0.00 37 1020.7
20260501184006 52 76 3.0 9.0 0.00 0.00 0.00 36 1020.7
20260501183507 53 334 4.0 9.0 0.00 0.00 0.00 38 1020.8
20260501183014 53 18 1.0 3.0 0.00 0.00 0.00 38 1020.8
20260501182503 53 341 0.0 3.0 0.00 0.00 0.00 39 1020.8
20260501182005 52 301 1.0 4.0 0.00 0.00 0.00 41 1020.9
20260501181504 52 169 2.0 5.0 0.00 0.00 0.00 39 1020.9
20260501181003 52 129 2.0 5.0 0.00 0.00 0.00 39 1021.0